Location: Apalco
(33.3585°N, 93.4602°W)
Time: 04:42:18
(UTC+00:00)

Envisat - Pass Details

Date: 07 October 2021
Orbit: 764 x 766 km, 98.2° (Epoch: 27 October)

Event Time Altitude Azimuth Distance (km) Brightness Sun altitude
Rises 09:56:05 0° 39° (NE) 3,232 7.0 -29.2°
Reaches altitude 10° 10:00:09 10° 72° (ENE) 2,299 6.4 -28.3°
Maximum altitude 10:01:51 12° 92° (E) 2,186 6.2 -28.0°
Drops below altitude 10° 10:03:33 10° 112° (ESE) 2,295 6.1 -27.6°
Sets 10:07:35 0° 144° (SE) 3,214 6.5 -26.8°
